Regional Weather Roundup
Issued by NWS Cleveland, OH

Home | Current Version | Previous Version | Graphics & Text | Print | Product List | Glossary On
Versions: 1 2 3 4 5 6 7 8 9 10 11 12 13 14 15 16 17 18 19 20 21 22 23 24 25 26 27 28 29 30 31 32 33 34 35 36 37 38 39 40 41 42 43 44 45 46 47 48 49 50
043
ASUS41 KCLE 110410
RWRCLE
OHIO REGIONAL WEATHER ROUNDUP
NATIONAL WEATHER SERVICE CLEVELAND, OH
1100 PM EST WED FEB 10 2016

NOTE: "FAIR" INDICATES FEW OR NO CLOUDS BELOW 12,000 FEET WITH NO
SIGNIFICANT WEATHER AND/OR OBSTRUCTIONS TO VISIBILITY.

OHZ001>008-015>018-024>027-034-035-043-044-110500-
   NORTHWEST OHIO

CITY           SKY/WX    TMP DP  RH WIND       PRES   REMARKS
DEFIANCE       CLOUDY    16   9  74 VRB6      30.07R WCI   7
FINDLAY        CLOUDY    17   9  70 W16       30.04R WCI   2
TOLEDO EXPRESS PTCLDY    14   6  70 NW10      30.04R WCI   1
TOLEDO EXEC    CLOUDY    17   4  56 NW16      30.04R WCI   2
LIMA           CLOUDY    14   7  73 W16       30.06R WCI  -2
$$

OHZ009>014-019>023-028>033-038-089-110500-
   NORTHEAST OHIO

CITY           SKY/WX    TMP DP  RH WIND       PRES   REMARKS
CLE-HOPKINS    SNOW      17  13  84 NW13G29   29.98R VSB 1/2 WCI   4
CLE-LAKEFRONT  LGT SNOW  21  10  62 NW26G36   29.94R WCI   4
CUY CO. ARPT   CLOUDY    19   9  63 NW14G23   29.93R WCI   6
LORAIN-ELYRIA  SNOW      17  12  80 NW21G28   29.98R VSB 1/2 WCI   0
ASHTABULA      LGT SNOW  16  13  88 NW9       29.90R VSB 1   WCI   4
AKRON-CANTON   LGT SNOW  14   9  80 W17       29.93R WCI  -3
WOOSTER        LGT SNOW  14  10  84 W16       29.97R FOG     WCI  -2
MANSFIELD      LGT SNOW  14  10  84 W10       29.97R FOG     WCI   1
YOUNGSTOWN     SNOW      17  13  84 W18G24    29.89R VSB 1/2 WCI   1
$$

OHZ042-051>053-060>062-070>072-077>081-110500-
  SOUTHWEST OHIO

CITY           SKY/WX    TMP DP  RH WIND       PRES   REMARKS
CINC-COVINGTON MOCLDY    12   4  70 CALM      30.13R
CINC-LUNKEN    CLOUDY    16   5  62 NW6       30.18R WCI   7
HAMILTON       CLOUDY    13   6  74 W5        30.16R WCI   5
DAYTON         PTCLDY    12   2  64 W13       30.09S WCI  -3
WRIGHT-PAT AFB PTCLDY    13   3  64 W12       30.10R WCI  -1
DAYTON GENERAL CLOUDY    14   5  67 W10       30.10R WCI   1
WILMINGTON     FLURRIES  13   5  70 W10       30.09R WCI   0
$$

OHZ036-037-039>041-045>050-054>059-063>069-073>076-082>088-110500-
  CENTRAL AND SOUTHEAST OHIO

CITY           SKY/WX    TMP DP  RH WIND       PRES   REMARKS
COLUMBUS       MOCLDY    13   3  64 W17       30.07R WCI  -4
OSU AIRPORT    CLOUDY    13   5  70 W14       30.06R WCI  -2
BOLTON FIELD   CLEAR     11   4  71 W8        30.08R WCI   0
RICKENBACK AFB CLEAR     10   2  72 W9        30.09R WCI  -3
NEWARK         CLOUDY    14   4  64 MISG      30.06R
MARION         CLOUDY    15   7  70 W16G22    30.04R WCI  -1
LANCASTER      CLEAR     12   2  64 W8        30.08S WCI   0
ZANESVILLE     CLOUDY    15   6  67 W12       30.05R WCI   2
NEW PHILLY     FLURRIES  15   8  73 W12G21    30.01R WCI   2
$$




USA.gov is the U.S. government's official web portal to all federal, state and local government web resources and services.